Location: Unspecified
(0.0000°N, 0.0000°E)
Time: 03:31:54
(UTC+00:00)

A-11 Canister half - Pass Details

Date: 17 April 2026
Orbit: 1523 x 1685 km, 47.3° (Epoch: 13 May)

Event Time Altitude Azimuth Distance (km) Brightness Sun altitude
Rises 08:34:21 0° 332° (NNW) 4,862 11.5 37.9°
Reaches altitude 10° 08:37:41 10° 337° (NNW) 3,856 11.1 38.7°
Maximum altitude 08:47:02 49° 50° (NE) 1,970 11.3 41.0°
Drops below altitude 10° 08:56:05 10° 122° (ESE) 3,742 11.7 43.2°
Sets 08:59:14 0° 127° (SE) 4,710 11.9 43.9°
